Location: Unspecified
(0.0000°N, 0.0000°E)
Time: 10:01:15
(UTC+00:00)

Kosmos-1429 - Pass Details

Date: 21 February 2024
Orbit: 1466 x 1518 km, 74.0° (Epoch: 13 April)

Event Time Altitude Azimuth Distance (km) Brightness Sun altitude
Rises 18:21:40 0° 359° (N) 4,650 ? -2.0°
Reaches altitude 10° 18:24:44 10° 5° (N) 3,668 ? -2.7°
Maximum altitude 18:33:19 51° 78° (ENE) 1,832 ? -4.8°
Drops below altitude 10° 18:41:50 10° 152° (SSE) 3,649 ? -6.9°
Sets 18:44:51 0° 156° (SSE) 4,625 ? -7.7°
